949  
ASUS41 KALY 181410  
RWRALY  
 
NEW YORK STATE HOURLY WEATHER ROUNDUP  
NATIONAL WEATHER SERVICE ALBANY NY  
1000 AM EDT SAT AUG 18 2018  
 
NOTE: "FAIR" INDICATES FEW OR NO CLOUDS BELOW 12,000 FEET WITH NO  
SIGNIFICANT WEATHER AND/OR NO S TO VISIBILITY
.  
 
NYZ032-033-038>043-046>054-057>066-NYZ062>081-082-084-181500-  
EAST  
 
 
CITY SKY/WX TMP DP RH WIND PRES REMARKS
 
ALBANY CLOUDY 77 70 79 NW5 29.83F  
GLENS FALLS CLOUDY 68 66 93 NE14 29.86R  
POUGHKEEPSIE FAIR 76 71 85 SW8 29.83S  
NEWBURGH PTSUNNY 75 73 94 SW6 29.87S  
MONTGOMERY PTSUNNY 77 73 87 SW9 29.84F  
WHITE PLAINS PTSUNNY 75 72 90 SW5 29.86S  
ISLIP CLOUDY 77 74 90 SW5 29.85F  
NEW YORK CITY PTSUNNY 80 72 76 W3 29.84S  
CENTRAL PARK FAIR 76 74 93 VRB5 29.88S FOG  

 
 
NYZ005>009-017-018-044>046-055-056-181500-  
CENTRAL  
 
 
CITY SKY/WX TMP DP RH WIND PRES REMARKS
 
FULTON CLOUDY 66 61 84 N9 29.91S  
SYRACUSE CLOUDY 65 65 100 N6 29.89F  
ROME CLOUDY 70 65 84 VRB6 29.90S  
ELMIRA CLOUDY 69 64 84 NE12 29.90R  
BINGHAMTON HVY RAIN 67 66 97 NW7 29.89S FOG  

 
 
NYZ026>034-041>043-087-181500-  
NORTH  
 
 
CITY SKY/WX TMP DP RH WIND PRES REMARKS
 
WATERTOWN CLOUDY 64 62 93 NE14 29.92S  
FORT DRUM NOT AVBL  
OGDENSBURG FAIR 66 60 80 N5 29.94S  
MASSENA FAIR 68 60 75 N8 29.94F  
SARANAC LAKE CLOUDY 62 60 93 NE10 29.93S  
PLATTSBURGH CLOUDY 66 59 78 N10 29.90S  

 
 
NYZ001>004-010>016-019>021-085-181500-  
WEST  
 
 
CITY SKY/WX TMP DP RH WIND PRES REMARKS
 
NIAGARA FALLS PTSUNNY 71 64 78 NE12 29.95R  
BUFFALO PTSUNNY 69 63 81 NE10 29.95R  
DUNKIRK FAIR 69 65 86 NE12 29.95R  
JAMESTOWN CLOUDY 67 64 90 NE9 29.96S  
WELLSVILLE LGT RAIN 65 64 97 N10 29.97R FOG  
ROCHESTER CLOUDY 69 66 90 N10 29.93S  
PENN YAN CLOUDY 68 64 87 N6 29.93R  

 
 
KEY  
WCI = WIND CHILL INDEX  
VSB = VISIBILITY  
HX = HEAT INDEX  

 
 
 
CLICK HERE TO GO TO PREVIOUS BULLETINS.

The Nexlab NY Page
The Nexlab VT Page
The Nexlab MA Page
The Nexlab CT Page Main Text Page